Weather History for Omak, WA

Change the Weather History Date:

Tuesday, January 14, 2014

  Actual Average Record
Temperature  
Mean Temperature 39 °F 26 °F  
Max Temperature 48 °F 32 °F 50 °F (1945)
Min Temperature 29 °F 21 °F -17 °F (1950)
Degree Days  
Heating Degree Days 26 39  
Month to date heating degree days 461 555  
Since 1 July heating degree days 3361 3304  
Cooling Degree Days 0 0  
Month to date cooling degree days 0 0  
Year to date cooling degree days 0 0  
Moisture  
Dew Point 30 °F    
Average Humidity 75    
Maximum Humidity 89    
Minimum Humidity 60    
Precipitation  
Precipitation 0.00 in 0.06 in 0.62 in (2000)
Month to date precipitation 0.16 1.04  
Year to date precipitation 0.16 1.04  
Sea Level Pressure  
Sea Level Pressure 30.55 in    
Wind  
Wind Speed 5 mph (SW)    
Max Wind Speed 13 mph    
Max Gust Speed 16 mph    
Visibility 10 miles    
Events      
T = Trace of Precipitation, MM = Missing Value Source: NWS Daily Summary

Daily Weather History Graph

Daily Weather History Graph

Search for Another Location

Airport:

Trip Planner

Search our weather history database for the weather conditions in past years. The results will help you decide how hot, cold, wet, or windy it might be!

Date:

Astronomy

Jan. 14, 2014 Rise Set
Actual Time 7:45 AM PST 4:29 PM PST
Civil Twilight 7:09 AM PST 5:05 PM PST
Nautical Twilight 6:30 AM PST 5:44 PM PST
Astronomical Twilight 5:53 AM PST 6:21 PM PST
Moon 3:41 PM PST (1/14) 6:21 AM PST (1/14)
Length of Visible Light 9h 55m
Length of Day
8h 44m
Waxing Gibbous, 98% of the Moon is Illuminated
Jan 14
Waxing Gibbous
Jan 15
Full
Jan 23
Last Quarter
Jan 30
New
Feb 6
First Quarter

Hourly Weather History & Observations

Time (PST) Temp. Windchill Dew Point Humidity Pressure Visibility Wind Dir Wind Speed Gust Speed Precip Events Conditions
12:53 AM 39.9 °F 36.7 °F 28.9 °F 65% 30.50 in 10.0 mi WNW 4.6 mph - N/A   Overcast
1:53 AM 35.1 °F 31.0 °F 27.0 °F 72% 30.51 in 10.0 mi NW 4.6 mph - N/A   Overcast
2:53 AM 33.1 °F 27.7 °F 27.0 °F 78% 30.53 in 10.0 mi NNW 5.8 mph - N/A   Clear
3:53 AM 32.0 °F 26.4 °F 27.0 °F 82% 30.54 in 10.0 mi WNW 5.8 mph - N/A   Clear
4:53 AM 34.0 °F - 28.0 °F 79% 30.55 in 10.0 mi Calm Calm - N/A   Clear
5:53 AM 30.9 °F 27.5 °F 26.1 °F 82% 30.56 in 10.0 mi West 3.5 mph - N/A   Clear
6:53 AM 30.9 °F 25.2 °F 26.1 °F 82% 30.57 in 10.0 mi NW 5.8 mph - N/A   Clear
7:53 AM 30.9 °F - 27.0 °F 85% 30.60 in 10.0 mi Calm Calm - N/A   Clear
8:53 AM 33.1 °F - 28.0 °F 82% 30.62 in 10.0 mi Calm Calm - N/A   Clear
9:53 AM 37.9 °F - 30.9 °F 76% 30.61 in 10.0 mi Calm Calm - N/A   Clear
10:53 AM 39.9 °F - 30.9 °F 70% 30.60 in 10.0 mi Calm Calm - N/A   Clear
11:53 AM 43.0 °F 40.3 °F 32.0 °F 65% 30.57 in 10.0 mi South 4.6 mph - N/A   Partly Cloudy
12:53 PM 46.9 °F - 33.1 °F 59% 30.55 in 10.0 mi South 5.8 mph - N/A   Clear
1:53 PM 46.9 °F - 33.1 °F 59% 30.55 in 10.0 mi South 6.9 mph - N/A   Clear
2:53 PM 46.9 °F - 33.1 °F 59% 30.54 in 10.0 mi SSW 4.6 mph - N/A   Clear
3:53 PM 46.9 °F - 34.0 °F 61% 30.56 in 10.0 mi South 10.4 mph - N/A   Clear
4:53 PM 43.0 °F 38.8 °F 33.1 °F 68% 30.56 in 10.0 mi South 6.9 mph - N/A   Clear
5:53 PM 44.1 °F 39.0 °F 34.0 °F 68% 30.53 in 10.0 mi South 9.2 mph - N/A   Clear
6:53 PM 39.0 °F 33.4 °F 32.0 °F 76% 30.54 in 10.0 mi WSW 8.1 mph - N/A   Clear
7:53 PM 39.9 °F 35.8 °F 33.1 °F 77% 30.53 in 10.0 mi South 5.8 mph - N/A   Clear
8:53 PM 39.9 °F 35.1 °F 33.1 °F 77% 30.50 in 10.0 mi South 6.9 mph - N/A   Clear
9:53 PM 34.0 °F 29.8 °F 30.9 °F 89% 30.51 in 10.0 mi North 4.6 mph - N/A   Clear
10:53 PM 34.0 °F 28.8 °F 30.0 °F 85% 30.50 in 10.0 mi WNW 5.8 mph - N/A   Clear
11:53 PM 32.0 °F - 28.9 °F 88% 30.49 in 10.0 mi Calm Calm - N/A   Clear